Miscellaneous Local Product
Issued by NWS Hastings, NE

Home | Current Version | Previous Version | Graphics & Text | Print | Product List | Glossary On
Versions: 1 2 3 4 5 6 7 8 9 10 11 12 13 14 15 16 17 18 19 20 21 22 23 24 25 26 27 28 29 30 31 32 33 34 35 36 37 38 39 40 41 42 43 44 45 46 47 48 49 50
000
AXUS43 KGID 311602
MISGRI

GID CWA HOURLY WEATHER ROUNDUP
NATIONAL WEATHER SERVICE HASTINGS NE
1100 AM CDT MON AUG 31 2015

NOTE: "FAIR" INDICATES FEW OR NO CLOUDS BELOW 12,000 FEET WITH NO
SIGNIFICANT WEATHER AND/OR OBSTRUCTIONS TO VISIBILITY.

...SOUTH CENTRAL NEBRASKA...

CITY           SKY/WX    TMP DP  RH WIND       PRES   REMARKS
GRAND ISLAND   SUNNY     76  66  71 S17       29.96S
HASTINGS       MOSUNNY   73  66  78 S13       29.96S
KEARNEY        SUNNY     75  64  69 S13       29.95R
ORD            SUNNY     76  64  66 S9        29.92S
YORK           MOSUNNY   73  70  88 S13       29.97S
AURORA         MOSUNNY   74  69  85 S13       29.96S
LEXINGTON      SUNNY     77  65  66 S14       29.95R
HOLDREGE       SUNNY     75  64  67 S13       29.94S
HEBRON         SUNNY     76  68  78 S8        29.97S

...NEBRASKA PANHANDLE...

CITY           SKY/WX    TMP DP  RH WIND       PRES   REMARKS
CHADRON        CLOUDY    76  51  41 NW9       29.98R
ALLIANCE       CLOUDY    76  53  44 N3        30.00R
SCOTTSBLUFF    CLOUDY    76  55  48 CALM      30.01R
SIDNEY         CLOUDY    76  52  43 N12       30.04R

...WESTERN AND NORTH CENTRAL NEBRASKA...

CITY           SKY/WX    TMP DP  RH WIND       PRES   REMARKS
VALENTINE      MOSUNNY   86  52  30 NW9G24    29.90R
AINSWORTH      MOSUNNY   80  57  45 SW8       29.92R
ONEILL         SUNNY     76  65  69 SW12      29.92R
BROKEN BOW     SUNNY     77  63  61 SW15G22   29.95R
IMPERIAL       SUNNY     79  53  40 VRB5      29.97R
NORTH PLATTE   SUNNY     75  59  57 CALM      29.95R
MCCOOK         SUNNY     75  59  57 W5        29.96R

...EASTERN NEBRASKA...

CITY           SKY/WX    TMP DP  RH WIND       PRES   REMARKS
NORFOLK        SUNNY     76  67  73 S14G21    29.93S
SO SIOUX CITY  SUNNY     75  69  81 SE9       29.94S
TEKAMAH        SUNNY     77  71  82 S8        29.96R
COLUMBUS       SUNNY     75  64  69 S8        29.96R
ALBION         SUNNY     73  66  79 S12       29.95S
OMAHA EPPLEY   MOSUNNY   78  71  79 SE10      29.97R
OFFUTT AFB     SUNNY     76  76 100 SE8       29.97S
MILLARD        SUNNY     76  71  83 S6        29.96S
LINCOLN        SUNNY     79  70  74 S13       29.97S
NEBRASKA CITY  SUNNY     76  72  88 S8        29.99S
BEATRICE       SUNNY     78  70  77 S8        29.98S
FALLS CITY     SUNNY     81  72  74 S8        29.98S

...NORTHERN KANSAS...

CITY           SKY/WX    TMP DP  RH WIND       PRES   REMARKS
GOODLAND       SUNNY     81  52  36 NW6       29.98S
HILL CITY      SUNNY     81  61  50 SW9       29.94S
NORTON         SUNNY     79  59  50 S9        29.94S
PHILLIPSBURG   SUNNY     75  70  83 E7        29.94S
SMITH CENTER   SUNNY     75  66  73 SE13      29.96S
HAYS           SUNNY     81  61  50 S12       29.94F
RUSSELL        SUNNY     82  64  54 S15       29.93F
CONCORDIA      SUNNY     79  70  74 S13       29.96S
SALINA         SUNNY     85  68  56 SE15      29.95S
TOPEKA         SUNNY     81  72  74 SE6       29.99S



USA.gov is the U.S. government's official web portal to all federal, state and local government web resources and services.